STARLINK-11645, 63316

Orbit data source: Space-Track

STARLINK-11645, 63316 is a payload satellite owned by SpaceX/Seattle (US) in LEO that was launched on Tue, 18 Mar 2025 UTC via an FALCON 9 launch vehicle from the Air Force Eastern Test Range (AFETR). Payload-class satellites include a variety of spacecraft equipped with specific instruments for various scientific and technological missions. These include communications satellites like Starlink; space stations such as the ISS; scientific satellites like the Hubble; Earth observation satellites from companies like Planet Labs, Umbra, and HawkEye 360; GPS; miniature CubeSats for education and research; and military/defense satellites.

Loading next visibility...
Identifier
63316, 2025-057K
Orbit
LEO
Last TLE update
11 hours ago
Origin
Manufacturer
SpaceX/Seattle
Mission
Operational Commercial Communications
Bus & Motor
STARLINK V2M, Unknown motor
Mass
730 kg wet, ~700 kg dry
Launch date (UTC)
2025-03-18 (2 months ago)
Launch vehicle
FALCON 9
Launch site
Air Force Eastern Test Range (AFETR)
Object type
Payload
Rocket body
Debris
Shape & HBR
Box + 2 Pan, 29 m
Radar Cross Section
36.964 m², Large (>1 m²)

Expand to show TLE details & history

TLE from 11 hours ago
0 STARLINK-11645
1 63316U 25057K   25128.80236648 -.00000335  00000-0  89219-6 0  9990
2 63316  42.9992 302.5725 0002489 268.7136  91.3446 15.70831148  9257
Epoch: 2025-05-08T19:15Z
Definitive object data (Epoch: 2025-05-08T19:15:24.463Z)
Latitude
-0.00007°
Longitude
146.85286°
Altitude
356.331 km
Speed
7.697 km/s
True Right ascension
20h 10m 17s
True Declination
0° 00' 00"
Sunlit
Object was in daylight at TLE epoch
Visualization TLE readout
Latitude
27.81534°
Longitude
178.35901°
Altitude
357.846 km
Speed
7.698 km/s
Apparent Right ascension
00h 03m 14s
Apparent Declination
-5° 43' 44"
Sunlit
Object is in daylight
Visualization observer readout
Local Sidereal Time
14:16:01
Azimuth
49.961° ENE
Elevation
-44.643°
Doppler factor
1
Orbital elements
Apogee altitude
360.179 km
Perigee altitude
356.825 km
Semi-major axis
6,736.639 km
Eccentricity
0.0002489
Inclination
42.9992°
RAAN
302.5725°
Arg. of periapsis
268.7136°
True anomaly
91.37311°
Mean anomaly
91.3446°
Eccentric anomaly
91.35886°
Mean motion
3.92535 °/min
BSTAR
8.9219e-7
Orbital period
91.71 mins
Loading maneuver chart data...
Loading SW <> Apogee altitude chart data...
Loading historical data...
Loading historical data...
Loading historical data...
Loading historical data...
Loading historical data...
Loading historical data...
Loading historical data...

STARLINK-11645 Visibility forecast

Observer location: undefined°, undefined°

Span
Click to sort rows by Start time (UTC) header in descending order
Start Az.
Max El. time (UTC)
Max El. Az.
Max El.
End time (UTC)
End Az.
5 mins2025-05-09 15:19:14.256Z234.454° WSW2025-05-09 15:22:14.256Z135.118° SSE38.575°2025-05-09 15:24:14.256Z80.626° E
4 mins2025-05-09 18:33:14.256Z304.516° NW2025-05-09 18:34:14.256Z344.214° N37.797°2025-05-09 18:37:14.256Z88.914° E
4 mins2025-05-09 20:09:14.256Z261.653° W2025-05-09 20:10:14.256Z227.303° WSW31.21°2025-05-09 20:13:14.256Z136.79° SSE
|